TimeEST,TemperatureF,Dew PointF,Humidity,Sea Level PressureIn,VisibilityMPH,Wind Direction,Wind SpeedMPH,Gust SpeedMPH,PrecipitationIn,Events,Conditions,WindDirDegrees,DateUTC
12:29 AM,24.8,19.4,80,30.10,10.0,Calm,Calm,-,N/A,,Overcast,0,2013-02-04 05:29:00
12:53 AM,24.1,18.0,77,30.14,10.0,Calm,Calm,-,N/A,,Scattered Clouds,0,2013-02-04 05:53:00
1:23 AM,23.0,17.6,80,30.10,10.0,Calm,Calm,-,N/A,,Mostly Cloudy,0,2013-02-04 06:23:00
1:53 AM,25.0,19.0,78,30.14,10.0,WNW,3.5,-,N/A,,Overcast,290,2013-02-04 06:53:00
2:53 AM,25.0,19.0,78,30.11,10.0,Calm,Calm,-,N/A,,Overcast,0,2013-02-04 07:53:00
3:42 AM,24.8,19.4,80,30.07,10.0,Calm,Calm,-,N/A,,Scattered Clouds,0,2013-02-04 08:42:00
3:53 AM,24.1,19.0,81,30.12,10.0,NW,4.6,-,N/A,,Partly Cloudy,320,2013-02-04 08:53:00
4:24 AM,24.8,19.4,80,30.08,10.0,Variable,3.5,-,N/A,,Mostly Cloudy,0,2013-02-04 09:24:00
5:53 AM,21.9,19.0,89,30.12,10.0,Calm,Calm,-,N/A,,Partly Cloudy,0,2013-02-04 10:53:00
6:53 AM,21.9,19.0,89,30.13,10.0,Calm,Calm,-,N/A,,Clear,0,2013-02-04 11:53:00
7:53 AM,21.9,19.0,89,30.12,10.0,Calm,Calm,-,N/A,,Clear,0,2013-02-04 12:53:00
8:53 AM,24.1,19.9,84,30.11,10.0,Calm,Calm,-,N/A,,Partly Cloudy,0,2013-02-04 13:53:00
9:53 AM,26.1,21.0,81,30.09,10.0,Calm,Calm,-,N/A,,Partly Cloudy,0,2013-02-04 14:53:00
10:53 AM,28.9,23.0,78,30.07,10.0,Variable,3.5,-,N/A,,Scattered Clouds,0,2013-02-04 15:53:00
11:53 AM,33.1,21.9,64,30.05,10.0,South,4.6,-,N/A,,Overcast,180,2013-02-04 16:53:00
12:53 PM,37.9,21.0,51,29.98,10.0,SSW,8.1,-,N/A,,Overcast,200,2013-02-04 17:53:00
1:53 PM,42.1,19.9,41,29.93,10.0,Variable,6.9,-,N/A,,Mostly Cloudy,0,2013-02-04 18:53:00
2:53 PM,43.0,24.1,47,29.91,10.0,Calm,Calm,-,N/A,,Overcast,0,2013-02-04 19:53:00
3:53 PM,46.0,24.1,42,29.88,10.0,Variable,6.9,-,N/A,,Overcast,0,2013-02-04 20:53:00
4:53 PM,45.0,25.0,46,29.88,10.0,Variable,5.8,-,N/A,,Overcast,0,2013-02-04 21:53:00
5:53 PM,44.1,25.0,47,29.89,10.0,SSW,5.8,-,N/A,,Overcast,210,2013-02-04 22:53:00
6:53 PM,43.0,27.0,53,29.91,10.0,SW,4.6,-,N/A,,Overcast,230,2013-02-04 23:53:00
7:53 PM,43.0,30.9,62,29.92,10.0,WSW,6.9,24.2,0.00,Rain,Light Rain,250,2013-02-05 00:53:00
8:53 PM,44.1,30.0,58,29.92,10.0,Calm,Calm,-,0.00,,Overcast,0,2013-02-05 01:53:00
9:53 PM,42.1,28.9,60,29.92,10.0,Variable,3.5,-,N/A,,Overcast,0,2013-02-05 02:53:00
10:53 PM,42.1,27.0,55,29.91,10.0,Calm,Calm,-,N/A,,Overcast,0,2013-02-05 03:53:00
11:53 PM,41.0,27.0,57,29.91,10.0,WSW,3.5,-,N/A,,Overcast,240,2013-02-05 04:53:00